Torna al catalogo

STARLINK-34295

AttivoComunicazioniVLEO
NORAD 64455·PAYLOAD·🇺🇸 United States

Lanciato Jun 18, 2025 da Cape Canaveral Space Force Station

Loading…

Prossimi Passaggi (prossime 24 ore)

TLE

AggiornatoSource: CelesTrak SupGP

Epoca: Sep 14, 2026, 21:05 UTC

1 64455C 25130T   26257.87895833  .00026708  00000+0  78936-3 0  2573
2 64455  53.1587 285.7732 0001201  86.8431 328.1585 15.34366473    18

Traccia STARLINK-34295 in tempo reale con AllMySat

Download on the App Store